Погода в Кота-Кинабалу

Малайзия     5°58′40″N   116°04′23″E
темп.,
°C
ветер,
м/с
пор.,
м/с
влажн.,
%
обл.,
%
осадки,
мм/ч
давл.,
гПа
погр.,
м
19 апреля, пн
пн1923:00+27ююз6777100 0.6 1012765
02:00+27ююз5677100 0.8 1010520
05:00+26ююз4676100 0.0 1010483
08:00+26ююз567690 0.0 1012451
11:00+27юз6873100 0.0 1012627
14:00+28зюз8874100 0.0 1009644
17:00+28зюз7875100 1.8 1008448
20:00+28ююз4575100 2.9 1010464
20 апреля, вт
вт2023:00+27ю4577100 0.4 1011381
02:00+27ююз5679100 0.5 1009477
05:00+26ююз5681100 0.7 1010505
08:00+26ю4681100 1.1 1012445
11:00+28юз5676100 0.2 1011663
14:00+28зюз6671100 0.2 1009740
17:00+29зюз566890 0.0 1009891
20:00+29юз4568100 0.0 1011865
21 апреля, ср
ср2123:00+27ю457273 0.0 1012538
02:00+27ююз4573100 0.0 1010404
05:00+27ю4575100 0.0 1010383
08:00+27ю457699 0.0 1012406
11:00+27юз567743 0.0 1011438
14:00+28з557148 0.0 1009429
17:00+28зюз3468100 0.0 1008573
20:00+28ююз1267100 0.0 1010527
22 апреля, чт
чт2223:00+27ююв2274100 0.0 1011278
02:00+26ю2373100 0.0 1009224
05:00+26ю337423 0.0 1009225
08:00+26ю347226 0.0 1011263
11:00+27зюз557799 0.0 1011314
14:00+28з557393 0.0 1008396
17:00+29з446823 0.0 1007653
20:00+29зюз2368100 0.0 1009687
23 апреля, пт
пт2323:00+27ю3373100 0.0 1010356
02:00+27ю2375100 0.0 1008248
05:00+26ю337592 0.0 1008245
08:00+27ю3373100 0.0 1010257
11:00+27зюз5676100 0.0 1010363
14:00+28з667499 0.0 1008508
17:00+28з5571100 0.0 1007693
20:00+29ююз2370100 0.0 1010775